Corning, AR

12:04 AM CDT on June 26, 2017 (GMT -0500)
Corning

Weather History for K4M9 - November, 2012

Change the Weather History Date:

Monday, November 12, 2012

  Actual Average (KARG) Record (KARG)
Temperature  
Mean Temperature 42 °F -  
Max Temperature 50 °F 56 °F 78 °F (2003)
Min Temperature 33 °F 40 °F 14 °F (2013)
Degree Days  
Heating Degree Days 24    
Moisture  
Dew Point 30 °F    
Average Humidity 64    
Maximum Humidity 100    
Minimum Humidity 37    
Precipitation  
Precipitation 0.10 in - - ()
Sea Level Pressure  
Sea Level Pressure 30.37 in    
Wind  
Wind Speed 11 mph (WNW)    
Max Wind Speed 21 mph    
Max Gust Speed 30 mph    
Visibility 9 miles    
Events Rain    
Averages and records for this station are not official NWS values.
T = Trace of Precipitation, MM = Missing Value Source: NWS Daily Summary

Daily Weather History Graph

Daily Weather History Graph

Search for Another Location

Airport or City:

Trip Planner

Search our weather history database for the weather conditions in past years. The results will help you decide how hot, cold, wet, or windy it might be!

Date:

Astronomy

Nov. 12, 2012 Rise Set
Actual Time 6:37 AM CST 4:55 PM CST
Civil Twilight 6:10 AM CST 5:23 PM CST
Nautical Twilight 5:39 AM CST 5:54 PM CST
Astronomical Twilight 5:08 AM CST 6:24 PM CST
Moon 5:04 AM CST (11/12) 4:00 PM CST (11/12)
Length of Visible Light 11h 13m
Length of Day
10h 18m
Waning Crescent, 2% of the Moon is Illuminated
Nov 12
Waning Crescent
Nov 13
New
Nov 20
First Quarter
Nov 28
Full
Dec 6
Last Quarter

Hourly Weather History & Observations

Time (CST) Temp. Windchill Dew Point Humidity Pressure Visibility Wind Dir Wind Speed Gust Speed Precip Events Conditions
12:15 AM 50.0 °F - 50.0 °F 100% 30.06 in 3.0 mi WNW 8.1 mph - 0.04 in Rain Light Rain
12:35 AM 50.0 °F - 50.0 °F 100% 30.11 in 5.0 mi WSW 10.4 mph - 0.05 in Rain Light Rain
12:55 AM 50.0 °F - 50.0 °F 100% 30.10 in 2.5 mi West 9.2 mph - 0.08 in Rain Rain
1:35 AM 46.4 °F 39.2 °F 44.6 °F 93% 30.12 in 7.0 mi WNW 18.4 mph 26.5 mph 0.01 in Rain Light Rain
1:55 AM 46.4 °F 39.5 °F 42.8 °F 87% 30.15 in 9.0 mi WNW 17.3 mph 25.3 mph 0.02 in Rain Light Rain
2:15 AM 44.6 °F 36.9 °F 41.0 °F 87% 30.16 in 10.0 mi NW 18.4 mph 23.0 mph N/A   Unknown
2:35 AM 44.6 °F 36.6 °F 41.0 °F 87% 30.17 in 10.0 mi NW 19.6 mph 27.6 mph N/A   Unknown
2:55 AM 44.6 °F 37.2 °F 39.2 °F 81% 30.19 in 10.0 mi WNW 17.3 mph 24.2 mph N/A   Unknown
3:15 AM 42.8 °F 34.0 °F 39.2 °F 87% 30.19 in 10.0 mi NW 20.7 mph 29.9 mph N/A   Unknown
3:35 AM 41.0 °F 31.9 °F 37.4 °F 87% 30.17 in 10.0 mi NW 19.6 mph 26.5 mph N/A   Unknown
3:55 AM 41.0 °F 32.2 °F 35.6 °F 81% 30.21 in 10.0 mi NW 18.4 mph 27.6 mph N/A   Unknown
4:15 AM 39.2 °F 30.2 °F 35.6 °F 87% 30.24 in 10.0 mi WNW 17.3 mph 26.5 mph N/A   Unknown
4:35 AM 39.2 °F 30.8 °F 35.6 °F 87% 30.26 in 10.0 mi NW 15.0 mph 24.2 mph N/A   Unknown
4:55 AM 39.2 °F 31.2 °F 35.6 °F 87% 30.26 in 10.0 mi NW 13.8 mph 19.6 mph N/A   Unknown
5:15 AM 39.2 °F 29.6 °F 32.0 °F 75% 30.29 in 10.0 mi NNW 19.6 mph 26.5 mph N/A   Unknown
5:35 AM 37.4 °F 27.2 °F 28.4 °F 70% 30.29 in 10.0 mi NNW 19.6 mph 26.5 mph N/A   Unknown
5:55 AM 35.6 °F 25.5 °F 28.4 °F 75% 30.31 in 10.0 mi NW 17.3 mph 23.0 mph N/A   Unknown
6:15 AM 35.6 °F 25.5 °F 26.6 °F 70% 30.33 in 10.0 mi NW 17.3 mph 24.2 mph N/A   Unknown
6:35 AM 33.8 °F 25.8 °F 24.8 °F 70% 30.34 in 10.0 mi NW 10.4 mph 16.1 mph N/A   Unknown
6:55 AM 33.8 °F 25.3 °F 24.8 °F 70% 30.35 in 10.0 mi NW 11.5 mph 21.9 mph N/A   Unknown
7:15 AM 33.8 °F 25.3 °F 24.8 °F 70% 30.36 in 10.0 mi NW 11.5 mph - N/A   Unknown
7:35 AM 33.8 °F 25.8 °F 24.8 °F 70% 30.37 in 10.0 mi NNW 10.4 mph - N/A   Unknown
7:55 AM 35.6 °F 27.5 °F 24.8 °F 65% 30.38 in 10.0 mi NNW 11.5 mph - N/A   Unknown
8:15 AM 35.6 °F 28.0 °F 24.8 °F 65% 30.39 in 10.0 mi NW 10.4 mph 17.3 mph N/A   Unknown
8:35 AM 37.4 °F 28.5 °F 24.8 °F 60% 30.40 in 10.0 mi NNW 15.0 mph 18.4 mph N/A   Unknown
8:55 AM 37.4 °F 28.9 °F 24.8 °F 60% 30.42 in 10.0 mi NNW 13.8 mph 17.3 mph N/A   Unknown
9:15 AM 37.4 °F 29.8 °F 24.8 °F 60% 30.42 in 10.0 mi NNW 11.5 mph 17.3 mph N/A   Unknown
9:35 AM 39.2 °F 33.0 °F 24.8 °F 56% 30.43 in 10.0 mi NW 9.2 mph - N/A   Unknown
9:55 AM 41.0 °F 34.3 °F 24.8 °F 53% 30.44 in 10.0 mi NW 11.5 mph - N/A   Unknown
10:15 AM 41.0 °F 32.8 °F 24.8 °F 53% 30.44 in 10.0 mi NNW 16.1 mph 20.7 mph N/A   Unknown
10:35 AM 41.0 °F 34.3 °F 24.8 °F 53% 30.45 in 10.0 mi NNW 11.5 mph - N/A   Unknown
10:55 AM 42.8 °F 36.6 °F 24.8 °F 49% 30.45 in 10.0 mi NNW 11.5 mph - N/A   Unknown
11:15 AM 44.6 °F 40.2 °F 24.8 °F 46% 30.44 in 10.0 mi NNW 8.1 mph - N/A   Unknown
11:35 AM 44.6 °F 40.2 °F 23.0 °F 43% 30.43 in 10.0 mi NW 8.1 mph - N/A   Unknown
11:55 AM 44.6 °F 40.7 °F 23.0 °F 43% 30.41 in 10.0 mi North 6.9 mph - N/A   Unknown
12:15 PM 46.4 °F 42.4 °F 23.0 °F 40% 30.41 in 10.0 mi North 8.1 mph - N/A   Unknown
12:35 PM 46.4 °F - 23.0 °F 40% 30.40 in 10.0 mi Calm Calm - N/A   Unknown
12:55 PM 46.4 °F 44.3 °F 21.2 °F 37% 30.39 in 10.0 mi NNE 4.6 mph - N/A   Unknown
1:15 PM 48.2 °F - 23.0 °F 37% 30.39 in 10.0 mi Calm Calm - N/A   Unknown
1:35 PM 48.2 °F - 23.0 °F 37% 30.38 in 6.0 mi Calm Calm - N/A   Haze
1:55 PM 48.2 °F - 23.0 °F 37% 30.38 in 10.0 mi Calm Calm - N/A   Unknown
2:15 PM 48.2 °F - 23.0 °F 37% 30.38 in 5.0 mi Calm Calm - N/A   Haze
2:35 PM 50.0 °F - 26.6 °F 40% 30.38 in 10.0 mi South 8.1 mph - N/A   Unknown
2:55 PM 50.0 °F - 24.8 °F 37% 30.39 in 10.0 mi South 5.8 mph - N/A   Unknown
3:15 PM 50.0 °F - 24.8 °F 37% 30.39 in 10.0 mi SW 3.5 mph - N/A   Unknown
3:35 PM 50.0 °F - 26.6 °F 40% 30.39 in 1.2 mi WNW 9.2 mph - N/A   Haze
3:55 PM 50.0 °F - 26.6 °F 40% 30.40 in 10.0 mi West 9.2 mph - N/A   Unknown
4:15 PM 48.2 °F - 24.8 °F 40% 30.40 in 10.0 mi West 8.1 mph - N/A   Unknown
4:35 PM 48.2 °F - 30.2 °F 50% 30.41 in 10.0 mi West 5.8 mph - N/A   Unknown
4:55 PM 46.4 °F 43.5 °F 32.0 °F 57% 30.41 in 10.0 mi West 5.8 mph - N/A   Unknown
5:15 PM 46.4 °F 43.5 °F 32.0 °F 57% 30.42 in 7.0 mi West 5.8 mph - N/A   Unknown
5:35 PM 44.6 °F 41.4 °F 32.0 °F 61% 30.42 in 9.0 mi WSW 5.8 mph - N/A   Unknown
5:55 PM 44.6 °F 41.4 °F 32.0 °F 61% 30.43 in 10.0 mi WSW 5.8 mph - N/A   Unknown
6:15 PM 44.6 °F 40.7 °F 32.0 °F 61% 30.43 in 9.0 mi WSW 6.9 mph - N/A   Unknown
6:35 PM 44.6 °F 40.7 °F 28.4 °F 53% 30.44 in 10.0 mi West 6.9 mph - N/A   Unknown
6:55 PM 42.8 °F 41.1 °F 30.2 °F 61% 30.44 in 10.0 mi West 3.5 mph - N/A   Unknown
7:35 PM 41.0 °F 38.0 °F 32.0 °F 70% 30.45 in 10.0 mi WNW 4.6 mph - N/A   Unknown
7:55 PM 41.0 °F 38.0 °F 30.2 °F 65% 30.45 in 10.0 mi WNW 4.6 mph - N/A   Unknown
8:15 PM 41.0 °F 38.0 °F 28.4 °F 61% 30.46 in 10.0 mi WNW 4.6 mph - N/A   Unknown
8:35 PM 41.0 °F 39.0 °F 28.4 °F 61% 30.46 in 10.0 mi WNW 3.5 mph - N/A   Unknown
8:55 PM 39.2 °F 37.0 °F 30.2 °F 70% 30.47 in 10.0 mi WNW 3.5 mph - N/A   Unknown
9:15 PM 39.2 °F 35.9 °F 26.6 °F 61% 30.47 in 10.0 mi West 4.6 mph - N/A   Unknown
9:35 PM 39.2 °F 35.9 °F 30.2 °F 70% 30.47 in 10.0 mi NW 4.6 mph - N/A   Unknown
9:55 PM 37.4 °F 33.8 °F 32.0 °F 81% 30.48 in 10.0 mi West 4.6 mph - N/A   Unknown
10:15 PM 37.4 °F 32.8 °F 28.4 °F 70% 30.49 in 10.0 mi WNW 5.8 mph - N/A   Unknown
10:35 PM 37.4 °F 34.9 °F 30.2 °F 75% 30.48 in 10.0 mi WNW 3.5 mph - N/A   Unknown
10:55 PM 37.4 °F - 28.4 °F 70% 30.48 in 10.0 mi Calm Calm - N/A   Unknown
11:15 PM 35.6 °F - 30.2 °F 81% 30.49 in 10.0 mi Calm Calm - N/A   Unknown
11:35 PM 35.6 °F 32.8 °F 32.0 °F 87% 30.49 in 10.0 mi SSW 3.5 mph - N/A   Unknown
11:55 PM 35.6 °F 32.8 °F 32.0 °F 87% 30.49 in 10.0 mi West 3.5 mph - N/A   Unknown